This is the latest recevied weather packets stored in our database for station/object N0NAI-13. If no packets are shown the sender has not sent any weather packets the latest 10 day(s).
| Time | Temp. | Humidity | Pressure | Rain* | Wind** | Luminosity | Snow |
|---|---|---|---|---|---|---|---|
| 1777986319 | 5.56° C | 65% | 1012.7 hPa | 0 mm | - | - | - |
| 1777985722 | 5° C | 67% | 1012.4 hPa | 0 mm | - | - | - |
| 1777985125 | 4.44° C | 70% | 1012.4 hPa | 0 mm | - | - | - |
| 1777984528 | 3.89° C | 73% | 1012.3 hPa | 0 mm | - | - | - |
| 1777983930 | 2.22° C | 77% | 1012.1 hPa | 0 mm | - | - | - |
| 1777983315 | 1.11° C | 79% | 1011.9 hPa | 0 mm | - | - | - |
| 1777982719 | 0.56° C | 82% | 1011.8 hPa | 0 mm | - | - | - |
| 1777982121 | 0.56° C | 82% | 1011.6 hPa | 0 mm | - | - | - |
| 1777981524 | 0.56° C | 82% | 1011.3 hPa | 0 mm | - | - | - |
| 1777980921 | 0.56° C | 81% | 1011.1 hPa | 0 mm | - | - | - |
| 1777980318 | 0.56° C | 81% | 1010.9 hPa | 0 mm | - | - | - |
| 1777979715 | 0.56° C | 80% | 1010.7 hPa | 0 mm | - | - | - |
| 1777979118 | 0.56° C | 80% | 1010.7 hPa | 0 mm | - | - | - |
| 1777978521 | 0.56° C | 79% | 1010.3 hPa | 0 mm | - | - | - |
| 1777977924 | 1.11° C | 78% | 1010.3 hPa | 0 mm | - | - | - |
| 1777977327 | 1.11° C | 77% | 1010.2 hPa | 0 mm | - | - | - |
| 1777976730 | 1.11° C | 77% | 1010.1 hPa | 0 mm | - | - | - |
| 1777976133 | 1.11° C | 77% | 1010 hPa | 0 mm | - | - | - |
| 1777975518 | 1.11° C | 76% | 1010.1 hPa | 0 mm | - | - | - |
| 1777974920 | 1.67° C | 76% | 1009.9 hPa | 0 mm | - | - | - |
| 1777974323 | 1.67° C | 75% | 1009.9 hPa | 0 mm | - | - | - |
| 1777973726 | 1.67° C | 75% | 1009.9 hPa | 0 mm | - | - | - |
| 1777973129 | 1.67° C | 75% | 1009.8 hPa | 0 mm | - | - | - |
| 1777972532 | 2.22° C | 74% | 1009.7 hPa | 0 mm | - | - | - |
| 1777971917 | 2.22° C | 74% | 1009.8 hPa | 0 mm | - | - | - |
* Rain latest hour (hover to see other rain measurements)
** Current wind speed in m/s (hover to see current wind gust speed)